User: anonymous   Login
Location: Houston
(29.7630°N, 95.3630°W)
Time: 07:57:10
(UTC-05:00)
Language:

ISS - Orbit

View from above orbital plane
View from above orbital plane
View from above satellite
View from above satellite

Ground track
Ground track

The orbit data is extracted from the following two-line orbital elements,

1 25544U 98067A   15089.07448019  .00014410  00000-0  21433-3 0  9992
2 25544 051.6458 119.2439 0006964 152.9070 301.8758 15.55390673935721
Epoch (UTC): 30 March 2015 01:47:15
Eccentricity: 0.0006964
inclination: 51.6458°
perigee height: 396 km
apogee height: 406 km
right ascension of ascending node: 119.2439°
argument of perigee: 152.9070°
revolutions per day: 15.55390673
mean anomaly at epoch: 301.8758°
orbit number at epoch: 93572

The dashed part of the orbit path shows where the satellite is in the earth's shadow,  

DLR